Location: Newark
(49.2191°N, 12.6671°E)
Time: 17:57:51
(UTC+00:00)

Transit 4A - Pass Details

Date: 01 February 2020
Orbit: 872 x 973 km, 66.8° (Epoch: 26 February)

Event Time Altitude Azimuth Distance (km) Brightness Sun altitude
Rises 05:23:38 0° 236° (SW) 3,527 - -12.8°
Exits shadow 05:25:29 - 240° (WSW) 2,857 10.0 -12.5°
Reaches altitude 10° 05:26:16 10° 242° (WSW) 2,574 9.8 -12.4°
Maximum altitude 05:31:59 46° 315° (NW) 1,178 8.1 -11.5°
Drops below altitude 10° 05:37:37 10° 29° (NNE) 2,539 10.4 -10.6°
Sets 05:40:12 0° 35° (NE) 3,475 11.2 -10.2°
